Regional Weather Roundup
Issued by NWS Kansas City/Pleasant Hill, MO

Home | Current Version | Previous Version | Text Only | Print | Product List | Glossary On
Versions: 1 2 3 4 5 6 7 8 9 10 11 12 13 14 15 16 17 18 19 20 21 22 23 24 25 26 27
000
ASUS43 KEAX 231710
RWREAX

WEATHER ROUNDUP FOR EASTERN KANSAS AND NORTHWEST MISSOURI
NATIONAL WEATHER SERVICE KANSAS CITY/PLEASANT HILL MO
1200 PM CDT FRI JUN 23 2017

KSZ040-057-103>105-MOZ028-029-037-043-231800-
...KANSAS CITY METROPOLITAN AREA...

CITY           SKY/WX    TMP DP  RH WIND       PRES   REMARKS
K.C. INTL      PTSUNNY   78  56  46 N13       29.90S
K.C. DOWNTOWN  SUNNY     82  57  42 N9        29.89R
LEES SUMMIT    MOSUNNY   81  58  45 N17       29.90R
OLATHE - IXD   MOSUNNY   79  58  48 N17G26    29.91R
OLATHE - OJC   SUNNY     80  52  37 N20G26    29.90R
LAWRENCE       CLOUDY    79  61  53 NW16      29.93R

$$

MOZ001>008-011>017-020>025-030>033-038>040-044>046-053-054-231800-
...NORTHERN AND CENTRAL MISSOURI...

CITY           SKY/WX    TMP DP  RH WIND       PRES   REMARKS
ST. JOSEPH     CLOUDY    79  58  48 NW16      29.94R
MOSBY          SUNNY     81  50  34 N14       29.89S
WARRENSBURG    SUNNY     79  59  50 N12G21    29.86S
WHITEMAN AFB   PTSUNNY   80  64  58 N16G23    29.84F
CLINTON        PTSUNNY   75  68  78 N14G21    29.85R
SEDALIA        CLOUDY    81  65  58 N17       29.85S
WARSAW         NOT AVBL
CHILLICOTHE      N/A     81  64  56 VRB6      29.89R
KIRKSVILLE     SUNNY     80  61  52 NW13      29.86R

$$

MOZ041-047>049-056>058-063>065-088>090-097-231800-
...EASTERN AND SOUTHERN MISSOURI...

CITY           SKY/WX    TMP DP  RH WIND       PRES   REMARKS
ST. LOUIS INTL MOSUNNY   85  71  63 NW16      29.73S HX  90
SPIRIT OF STL  CLOUDY    84  72  67 N14G21    29.72S
COLUMBIA       CLOUDY    80  58  46 N26G35    29.83R
JEFFERSON CITY MOSUNNY   80  67  64 N14       29.79R
ROLLA          CLOUDY    80  70  71 N9        29.77F
OSAGE BEACH    CLOUDY    77  71  82 NW13G18   29.82R
SPRINGFIELD    LGT RAIN  80  75  84 SW10      29.79R
BRANSON        PTSUNNY   84  73  70 CALM      29.81F HX  91
JOPLIN         TSTM      72  71  97 N13G26    29.86R VSB 1
WEST PLAINS    CLOUDY    88  71  57 N8        29.78R HX  94

$$

IAZ060-094-KSZ022-034>040-054-083-096-NEZ052-066-093-231800-
...KANSAS...SOUTHEAST NEBRASKA AND IOWA...

CITY           SKY/WX    TMP DP  RH WIND       PRES   REMARKS
TOPEKA         CLOUDY    78  60  53 NW17G25   29.96R
MANHATTAN      CLOUDY    76  52  43 N10G17    30.01F
EMPORIA        CLOUDY    80  57  45 N13G22    29.95R
CHANUTE        MOSUNNY   83  63  50 N20       29.91R
WICHITA        CLOUDY    82  52  35 N20G29    29.99R
OMAHA          CLOUDY    68  50  52 NW17G24   30.03R
LINCOLN        LGT RAIN  66  52  60 NW14      30.07R
FALLS CITY     PTSUNNY   71  54  54 NW20G28   30.00R
LAMONI         MOSUNNY   79  56  45 NW17G24   29.90R
DES MOINES     PTSUNNY   77  51  40 W22       29.87S

$$





USA.gov is the U.S. government's official web portal to all federal, state and local government web resources and services.